This is the latest recevied weather packets stored in our database for station/object KD8OZS. If no packets are shown the sender has not sent any weather packets the latest 10 day(s).
| Time | Temp. | Humidity | Pressure | Rain* | Wind** | Luminosity | Snow |
|---|---|---|---|---|---|---|---|
| 1788031062 | 26.67° C | 59% | 1014.7 hPa | 0 mm | - | 206 W/m² | - |
| 1788030751 | 26.67° C | 55% | 1014.6 hPa | 0 mm | - | 734 W/m² | - |
| 1788030450 | 27.22° C | 56% | 1014.8 hPa | 0 mm | - | 891 W/m² | - |
| 1788030146 | 27.22° C | 57% | 1014.7 hPa | 0 mm | - | 212 W/m² | - |
| 1788029846 | 27.78° C | 53% | 1014.8 hPa | 0 mm | - | 475 W/m² | - |
| 1788029541 | 27.22° C | 55% | 1014.8 hPa | 0 mm | - | 886 W/m² | - |
| 1788029240 | 27.22° C | 60% | 1014.8 hPa | 0 mm | - | 700 W/m² | - |
| 1788028935 | 27.78° C | 56% | 1014.8 hPa | 0 mm | - | 835 W/m² | - |
| 1788028634 | 27.22° C | 58% | 1014.9 hPa | 0 mm | - | 797 W/m² | - |
| 1788028329 | 26.67° C | 58% | 1014.8 hPa | 0 mm | - | 574 W/m² | - |
| 1788028025 | 27.22° C | 57% | 1015.2 hPa | 0 mm | - | 334 W/m² | - |
| 1788027720 | 26.67° C | 55% | 1015.4 hPa | 0 mm | - | 829 W/m² | - |
| 1788027419 | 26.67° C | 59% | 1015.4 hPa | 0 mm | - | 911 W/m² | - |
| 1788027114 | 26.11° C | 56% | 1015.5 hPa | 0 mm | - | 655 W/m² | - |
| 1788026814 | 26.67° C | 58% | 1015.5 hPa | 0 mm | - | 675 W/m² | - |
| 1788026510 | 26.11° C | 57% | 1015.5 hPa | 0 mm | - | 714 W/m² | - |
| 1788026209 | 26.11° C | 57% | 1015.4 hPa | 0 mm | - | 835 W/m² | - |
| 1788025909 | 26.67° C | 55% | 1015.5 hPa | 0 mm | - | 844 W/m² | - |
| 1788025603 | 26.11° C | 58% | 1015.8 hPa | 0 mm | - | 861 W/m² | - |
| 1788025303 | 26.11° C | 61% | 1015.8 hPa | 0 mm | - | 873 W/m² | - |
| 1788025003 | 26.67° C | 58% | 1015.5 hPa | 0 mm | - | 837 W/m² | - |
| 1788024698 | 26.11° C | 59% | 1015.7 hPa | 0 mm | - | 772 W/m² | - |
| 1788024393 | 25.56° C | 56% | 1015.9 hPa | 0 mm | - | 129 W/m² | - |
| 1788024089 | 25.56° C | 60% | 1015.8 hPa | 0 mm | - | 168 W/m² | - |
| 1788023784 | 25.56° C | 59% | 1016.1 hPa | 0 mm | - | 375 W/m² | - |
* Rain latest hour (hover to see other rain measurements)
** Current wind speed in m/s (hover to see current wind gust speed)